sat.trackr.live / text

‹ back to catalog

SMDC ONE 2.3

NORAD 39474 · 2013-072N

PAYLOAD ACTIVE UNKNOWN

§ Identity

Operator
Country
US
Launch date
2013-12-06
Launch site
AFWTR
Launch vehicle
Mass (kg)
RCS (m²)

External: N2YO · Heavens-Above · Gunter

§ Orbital elements

Epoch: 2026-09-16T02:31:32.528640Z

Period
88.29 min
Inclination
120.4203°
Eccentricity
0.0004291
Mean motion
16.31073759 rev/d
Perigee alt
186.8 km
Apogee alt
192.5 km
Semi-major
6,567.8 km
B*
1.1182e-3
RAAN
163.2772°
Arg perigee
130.2603°
Mean anomaly
229.8898°
Rev number
13,196

§ Raw data

SMDC ONE 2.31 39474U 13072N   26259.10523760  .05719028  13935-4  11182-2 0  99902 39474 120.4203 163.2772 0004291 130.2603 229.8898 16.31073759131968

JSON: /api/v1/satellites/39474 · /tle

For live sub-satellite position, see the globe view (requires WebGL).

§ Visibility from observer

Set your observer location to see the next 7 days of passes ≥ 10°. The values pass through the URL so the page stays shareable.

No JS? Fill the form by hand. The geolocation button needs JavaScript.